Total_Precipitation_Accumulation
0.00 0.00 0.00 0.01 0.00 0.00 0.00 0.01 0.01 0.01 0.00 0.00 0.01 0.03 0.03 0.03 0.06 0.10 0.09 0.07 0.11 0.11 0.09 0.05 0.01 0.00 0.00 0.00 0.00 0.00 0.00 0.02 0.05 0.18 0.09 0.01 0.00 0.00 0.00 0.00 0.00 0.00 0.00 0.00 0.00 0.00 0.00
0.01 0.01 0.01 0.01 0.00 0.00 0.02 0.02 0.01 0.01 0.01 0.01 0.01 0.01 0.02 0.02 0.03 0.07 0.08 0.10 0.10 0.15 0.13 0.09 0.01 0.00 0.00 0.00 0.00 0.00 0.00 0.00 0.00 0.04 0.12 0.06 0.01 0.00 0.00 0.00 0.00 0.00 0.00 0.00 0.00 0.00 0.00
0.02 0.01 0.01 0.01 0.01 0.03 0.03 0.02 0.02 0.03 0.04 0.03 0.02 0.01 0.01 0.03 0.03 0.06 0.09 0.10 0.13 0.12 0.13 0.16 0.04 0.00 0.00 0.00 0.00 0.00 0.00 0.00 0.00 0.02 0.11 0.09 0.02 0.00 0.00 0.00 0.00 0.00 0.00 0.00 0.00 0.00 0.00
0.01 0.01 0.02 0.01 0.02 0.03 0.03 0.04 0.05 0.05 0.04 0.04 0.03 0.02 0.01 0.04 0.05 0.06 0.10 0.14 0.12 0.15 0.20 0.19 0.06 0.00 0.00 0.00 0.00 0.00 0.00 0.00 0.00 0.01 0.06 0.16 0.04 0.01 0.01 0.01 0.00 0.00 0.00 0.00 0.00 0.00 0.00
0.02 0.02 0.02 0.02 0.03 0.04 0.04 0.05 0.06 0.05 0.04 0.05 0.05 0.03 0.02 0.05 0.08 0.08 0.09 0.19 0.32 0.26 0.32 0.40 0.13 0.01 0.00 0.00 0.00 0.00 0.00 0.00 0.00 0.00 0.01 0.14 0.14 0.03 0.02 0.01 0.00 0.00 0.00 0.00 0.00 0.00 0.00
0.02 0.03 0.03 0.03 0.05 0.06 0.06 0.08 0.08 0.06 0.06 0.08 0.08 0.06 0.04 0.04 0.08 0.13 0.18 0.25 0.47 0.58 0.60 0.67 0.22 0.03 0.00 0.00 0.00 0.00 0.00 0.00 0.00 0.01 0.04 0.14 0.05 0.03 0.01 0.01 0.00 0.00 0.00 0.00 0.00 0.00 0.00
0.03 0.02 0.03 0.04 0.07 0.07 0.09 0.11 0.08 0.08 0.08 0.12 0.11 0.10 0.06 0.08 0.15 0.24 0.47 0.87 1.00 0.99 0.77 0.48 0.14 0.01 0.00 0.00 0.00 0.00 0.00 0.00 0.00 0.01 0.01 0.05 0.02 0.00 0.00 0.00 0.00 0.00 0.00 0.00 0.00 0.00 0.00
0.03 0.03 0.02 0.06 0.08 0.08 0.09 0.09 0.09 0.09 0.11 0.12 0.12 0.06 0.06 0.08 0.11 0.25 0.71 0.83 0.59 0.55 0.57 0.17 0.04 0.00 0.00 0.00 0.00 0.00 0.00 0.00 0.00 0.01 0.00 0.01 0.01 0.00 0.00 0.00 0.00 0.00 0.00 0.00 0.00 0.00 0.00
0.03 0.02 0.04 0.06 0.07 0.08 0.07 0.09 0.11 0.11 0.12 0.09 0.07 0.04 0.08 0.11 0.07 0.12 0.53 0.48 0.23 0.56 0.67 0.30 0.11 0.01 0.00 0.00 0.00 0.00 0.00 0.00 0.00 0.00 0.00 0.00 0.00 0.00 0.00 0.00 0.00 0.00 0.00 0.00 0.00 0.00 0.00
0.03 0.02 0.06 0.07 0.07 0.07 0.07 0.11 0.09 0.10 0.09 0.05 0.05 0.07 0.15 0.22 0.11 0.16 0.36 0.44 0.48 0.86 0.63 0.33 0.21 0.03 0.00 0.00 0.00 0.00 0.00 0.00 0.00 0.00 0.00 0.00 0.00 0.00 0.00 0.00 0.00 0.00 0.00 0.00 0.00 0.00 0.00
0.02 0.03 0.07 0.07 0.08 0.07 0.09 0.10 0.09 0.08 0.03 0.05 0.09 0.18 0.24 0.33 0.32 0.16 0.51 0.64 0.97 1.00 0.54 0.19 0.12 0.01 0.00 0.00 0.00 0.00 0.00 0.00 0.00 0.00 0.00 0.00 0.00 0.00 0.00 0.00 0.00 0.00 0.00 0.00 0.00 0.00 0.01
0.02 0.05 0.08 0.08 0.08 0.08 0.10 0.09 0.08 0.02 0.03 0.12 0.23 0.24 0.24 0.21 0.17 0.03 0.35 1.09 1.54 1.23 0.50 0.31 0.12 0.03 0.03 0.01 0.01 0.01 0.01 0.01 0.00 0.00 0.00 0.00 0.00 0.00 0.00 0.00 0.00 0.00 0.00 0.00 0.01 0.02 0.03
0.02 0.08 0.09 0.08 0.08 0.08 0.08 0.07 0.04 0.01 0.06 0.23 0.28 0.17 0.19 0.16 0.06 0.04 0.42 1.34 1.52 0.68 0.31 0.11 0.05 0.04 0.02 0.02 0.02 0.01 0.02 0.02 0.01 0.01 0.01 0.00 0.00 0.00 0.00 0.00 0.00 0.01 0.03 0.02 0.03 0.06 0.01
0.04 0.08 0.10 0.08 0.09 0.07 0.06 0.05 0.01 0.01 0.09 0.37 0.16 0.11 0.19 0.14 0.05 0.19 0.53 0.97 0.89 0.27 0.17 0.03 0.02 0.03 0.02 0.01 0.02 0.01 0.02 0.02 0.00 0.00 0.01 0.00 0.00 0.00 0.00 0.00 0.00 0.01 0.01 0.01 0.00 0.00 0.00
0.05 0.08 0.09 0.09 0.09 0.09 0.04 0.03 0.00 0.02 0.16 0.34 0.26 0.09 0.26 0.30 0.10 0.31 0.66 0.57 0.72 0.29 0.04 0.03 0.05 0.06 0.04 0.01 0.01 0.01 0.01 0.00 0.00 0.00 0.00 0.01 0.00 0.00 0.00 0.00 0.00 0.01 0.02 0.01 0.04 0.01 0.02
0.05 0.08 0.08 0.09 0.07 0.08 0.04 0.02 0.00 0.03 0.21 0.40 0.28 0.09 0.25 0.28 0.08 0.32 0.57 0.34 0.41 0.25 0.02 0.01 0.05 0.03 0.02 0.01 0.01 0.01 0.00 0.00 0.00 0.00 0.00 0.00 0.00 0.00 0.00 0.00 0.00 0.01 0.01 0.03 0.08 0.02 0.01
0.06 0.06 0.09 0.07 0.06 0.06 0.04 0.01 0.00 0.03 0.20 0.46 0.28 0.30 0.30 0.18 0.09 0.39 0.41 0.20 0.24 0.16 0.03 0.01 0.00 0.00 0.00 0.00 0.00 0.00 0.00 0.00 0.00 0.00 0.00 0.00 0.00 0.00 0.00 0.00 0.00 0.00 0.02 0.04 0.07 0.03 0.02
0.04 0.06 0.09 0.05 0.05 0.04 0.03 0.01 0.00 0.06 0.20 0.38 0.26 0.53 0.21 0.10 0.24 0.27 0.24 0.12 0.27 0.19 0.01 0.00 0.00 0.00 0.00 0.00 0.00 0.00 0.00 0.00 0.00 0.00 0.00 0.00 0.01 0.01 0.00 0.00 0.00 0.00 0.00 0.05 0.25 0.08 0.14
0.04 0.05 0.07 0.05 0.04 0.03 0.02 0.00 0.00 0.08 0.20 0.47 0.33 0.30 0.24 0.20 0.16 0.14 0.25 0.18 0.14 0.03 0.01 0.01 0.00 0.00 0.00 0.00 0.00 0.00 0.00 0.00 0.00 0.00 0.00 0.00 0.01 0.00 0.00 0.00 0.01 0.01 0.00 0.04 0.19 0.40 0.33
0.04 0.04 0.05 0.04 0.04 0.02 0.01 0.00 0.00 0.05 0.14 0.21 0.13 0.24 0.20 0.12 0.10 0.21 0.26 0.23 0.16 0.04 0.01 0.00 0.00 0.00 0.00 0.00 0.00 0.00 0.00 0.00 0.00 0.00 0.00 0.00 0.00 0.00 0.00 0.00 0.05 0.08 0.04 0.14 0.44 0.56 0.12
0.04 0.03 0.04 0.03 0.03 0.02 0.01 0.00 0.00 0.03 0.06 0.08 0.04 0.05 0.06 0.04 0.09 0.17 0.13 0.09 0.04 0.01 0.00 0.00 0.00 0.00 0.00 0.00 0.00 0.00 0.00 0.00 0.00 0.00 0.00 0.00 0.01 0.00 0.00 0.00 0.00 0.03 0.03 0.09 0.35 0.20 0.31
0.03 0.03 0.02 0.02 0.02 0.02 0.01 0.00 0.00 0.02 0.02 0.03 0.03 0.08 0.05 0.01 0.02 0.03 0.05 0.08 0.03 0.00 0.00 0.00 0.00 0.00 0.00 0.00 0.00 0.00 0.00 0.00 0.00 0.00 0.00 0.01 0.01 0.01 0.00 0.00 0.01 0.07 0.02 0.05 0.04 0.03 0.06
0.02 0.03 0.01 0.02 0.02 0.02 0.02 0.00 0.00 0.01 0.03 0.03 0.03 0.12 0.05 0.01 0.01 0.01 0.01 0.00 0.01 0.00 0.00 0.00 0.00 0.00 0.00 0.00 0.00 0.00 0.00 0.00 0.00 0.00 0.00 0.01 0.02 0.05 0.02 0.00 0.01 0.09 0.11 0.04 0.02 0.04 0.06
0.01 0.01 0.01 0.01 0.01 0.01 0.01 0.00 0.00 0.00 0.05 0.09 0.10 0.08 0.03 0.02 0.01 0.00 0.00 0.00 0.00 0.00 0.00 0.00 0.00 0.00 0.00 0.00 0.00 0.01 0.01 0.00 0.01 0.01 0.00 0.01 0.02 0.04 0.02 0.03 0.11 0.16 0.12 0.02 0.04 0.05 0.02
0.01 0.01 0.01 0.01 0.01 0.01 0.01 0.00 0.00 0.00 0.02 0.04 0.14 0.13 0.05 0.02 0.00 0.00 0.00 0.00 0.01 0.00 0.00 0.01 0.00 0.00 0.00 0.01 0.02 0.01 0.00 0.00 0.00 0.00 0.01 0.01 0.03 0.05 0.04 0.04 0.05 0.06 0.05 0.07 0.05 0.03 0.02
0.02 0.01 0.01 0.01 0.01 0.01 0.00 0.00 0.00 0.00 0.01 0.05 0.15 0.24 0.05 0.03 0.01 0.00 0.00 0.00 0.00 0.00 0.00 0.01 0.01 0.00 0.01 0.04 0.04 0.03 0.00 0.00 0.01 0.00 0.00 0.01 0.02 0.06 0.03 0.06 0.00 0.02 0.04 0.01 0.00 0.02 0.00
0.02 0.01 0.01 0.01 0.01 0.01 0.01 0.00 0.00 0.00 0.01 0.04 0.12 0.17 0.02 0.04 0.02 0.00 0.00 0.00 0.00 0.00 0.01 0.03 0.01 0.01 0.02 0.04 0.04 0.02 0.01 0.00 0.00 0.00 0.00 0.02 0.05 0.08 0.07 0.12 0.00 0.00 0.00 0.00 0.00 0.01 0.00
0.01 0.01 0.01 0.01 0.01 0.01 0.01 0.00 0.00 0.00 0.00 0.04 0.12 0.17 0.06 0.03 0.02 0.00 0.00 0.00 0.00 0.00 0.01 0.00 0.01 0.01 0.02 0.03 0.03 0.02 0.02 0.01 0.00 0.00 0.00 0.00 0.01 0.02 0.03 0.05 0.00 0.00 0.00 0.00 0.00 0.00 0.00
0.02 0.01 0.01 0.01 0.02 0.01 0.01 0.00 0.00 0.00 0.00 0.02 0.11 0.07 0.03 0.01 0.02 0.00 0.00 0.00 0.00 0.01 0.01 0.00 0.02 0.00 0.00 0.02 0.06 0.09 0.04 0.01 0.00 0.00 0.00 0.00 0.00 0.00 0.00 0.00 0.00 0.00 0.00 0.00 0.00 0.00 0.00